This demonstration page uses our WeatherBlox Daily Observations layout. Learn more.

Left ArrowRight Arrow

39.01783, -85.05884

Hourly Observations for May 21, 2019

Temp ( °F °C ) Dew Point ( °F °C ) Humidity (%) Winds ( mph kmh ) Pressure ( in mb ) Visibility ( mi km ) Precip ( " mm )
12:52 am 00:52 Cloudy 54 12.2 46 7.8 75 75 NNE 15 24 30.05 1018 10 16 0.00 0.00
1:52 am 01:52 Mostly Cloudy 53 11.7 45 7.2 74 74 NNE 14 22 30.06 1018 10 16 0.00 0.00
2:52 am 02:52 Cloudy 51 10.6 44 6.7 77 77 NNE 13 20 30.05 1018 10 16 0.00 0.00
3:52 am 03:52 Cloudy 51 10.6 44 6.7 77 77 NNE 12 19 30.06 1018 10 16 0.00 0.00
4:52 am 04:52 Cloudy 51 10.6 43 6.1 74 74 NE 12 19 30.06 1018 10 16 0.00 0.00
5:52 am 05:52 Cloudy 51 10.6 43 6.1 74 74 ENE 13 20 30.06 1018 10 16 0.00 0.00
6:52 am 06:52 Cloudy 51 10.6 43 6.1 74 74 NE 12 19 30.08 1019 10 16 0.00 0.00
7:52 am 07:52 Cloudy 51 10.6 43 6.1 74 74 ENE 12 19 30.09 1019 10 16 0.00 0.00
9:52 am 09:52 Cloudy 53 11.7 44 6.7 72 72 E 16 26 30.11 1020 10 16 0.00 0.00
10:52 am 10:52 Cloudy 56 13.3 45 7.2 67 67 E 15 24 30.10 1019 10 16 0.00 0.00
11:52 am 11:52 Mostly Cloudy 60 15.6 46 7.8 60 60 E 13 20 30.09 1019 10 16 0.00 0.00
12:52 pm 12:52 Mostly Cloudy 60 15.6 47 8.3 62 62 E 14 22 30.07 1018 10 16 0.00 0.03
2:52 pm 14:52 Mostly Cloudy 65 18.3 49 9.4 56 56 E 12 19 30.04 1017 10 16 0.00 0.00
3:52 pm 15:52 Mostly Cloudy 68 20 51 10.6 55 55 E 13 20 30.02 1017 10 16 0.00 0.00
4:52 pm 16:52 Mostly Cloudy 69 20.6 50 10 51 51 E 16 26 30.01 1016 10 16 0.00 0.00
5:52 pm 17:52 Partly Cloudy 69 20.6 49 9.4 49 49 ESE 14 22 30.01 1016 10 16 0.00 0.00
6:52 pm 18:52 Mostly Cloudy 69 20.6 48 8.9 47 47 E 13 20 30.00 1016 10 16 0.00 0.00
7:52 pm 19:52 Mostly Cloudy 66 18.9 48 8.9 52 52 ESE 13 20 29.98 1015 10 16 0.00 0.00
8:52 pm 20:52 Mostly Cloudy 65 18.3 47 8.3 52 52 E 15 24 29.98 1015 10 16 0.00 0.00
9:52 pm 21:52 Partly Cloudy 63 17.2 48 8.9 58 58 E 13 20 29.99 1016 10 16 0.00 0.00
10:52 pm 22:52 Partly Cloudy 62 16.7 49 9.4 62 62 E 14 22 30.00 1016 10 16 0.00 0.00
11:52 pm 23:52 Partly Cloudy 61 16.1 48 8.9 63 63 E 13 20 29.99 1016 10 16 0.00 0.00

Powered by AerisWeather